Location: Unspecified
(0.0000°N, 0.0000°E)
Time: 04:41:19
(UTC+01:00)

Palapa 6 Rocket - Visible Passes

Search period start: 20 December 2014 00:00
Search period end: 30 December 2014 00:00
Orbit: 485 x 1231 km, 22.7° (Epoch: 18 December)

Date Brightness Start Highest point End Pass type
(mag) Time Alt. Az. Time Alt. Az. Time Alt. Az.
20 Dec 6.2 06:12:33 10° SSW 06:17:05 20° SSE 06:22:11 10° ESE visible
20 Dec 4.0 20:52:38 10° WNW 20:55:27 38° WNW 20:55:27 38° WNW visible
21 Dec 6.1 06:00:04 10° SSW 06:04:37 22° SSE 06:09:48 10° ESE visible
21 Dec 2.9 20:40:09 10° WNW 20:44:42 70° SSW 20:44:45 70° SSW visible
22 Dec 6.0 05:47:37 10° SSW 05:52:09 23° SSE 05:57:23 10° ESE visible
22 Dec 3.5 20:27:40 10° WNW 20:32:22 56° SSW 20:34:04 32° SE visible
23 Dec 5.8 05:35:10 10° SSW 05:39:40 25° SSE 05:44:57 10° ESE visible
23 Dec 4.0 20:15:11 10° W 20:20:01 47° SSW 20:23:23 14° SE visible
24 Dec 5.5 05:22:45 10° SSW 05:27:12 28° SSE 05:32:30 10° E visible
24 Dec 4.4 20:02:42 10° W 20:07:38 40° SSW 20:11:44 10° SE visible
25 Dec 5.2 05:10:49 12° SSW 05:14:45 30° SSE 05:20:01 10° E visible
25 Dec 4.9 19:50:13 10° W 19:55:14 35° SSW 19:59:24 10° SE visible
26 Dec 4.9 05:00:06 23° SSW 05:02:18 34° SSE 05:07:31 10° E visible
26 Dec 5.2 19:37:44 10° W 19:42:48 31° SSW 19:47:02 10° SE visible
27 Dec 4.4 04:49:26 38° SSE 04:49:52 38° SSE 04:55:01 10° E visible
27 Dec 5.6 19:25:16 10° W 19:30:21 28° SSW 19:34:38 10° SSE visible
28 Dec 4.6 04:38:45 36° ESE 04:38:45 36° ESE 04:42:29 10° E visible
28 Dec 3.9 06:21:24 10° W 06:26:16 48° NNW 06:32:19 10° NE visible
29 Dec 5.4 04:28:03 21° E 04:28:03 21° E 04:29:58 10° ENE visible
29 Dec 4.0 06:10:08 15° W 06:13:52 40° NNW 06:19:26 10° NE visible
